Regional Weather Roundup
Issued by NWS

Home | Current Version | Previous Version | Text Only | Print | Product List | Glossary On
Versions: 1 2 3 4 5 6 7 8 9 10 11 12 13 14 15 16 17 18 19 20 21 22 23 24 25 26 27 28 29 30 31 32 33 34 35 36 37 38 39 40 41 42 43 44 45 46 47 48 49 50
000
ASUS43 KDTX 290810
RWRMI
MICHIGAN HOURLY REGIONAL WEATHER ROUNDUP
NATIONAL WEATHER SERVICE DETROIT/PONTIAC MI
400 AM EDT THU SEP 29 2016

NOTE: "FAIR" INDICATES FEW OR NO CLOUDS BELOW 12,000 FEET WITH NO
SIGNIFICANT WEATHER AND/OR OBSTRUCTION TO VISIBILITY.

MIZ047>049-052>055-059>063-066>070-074>076-081>083-290900-
SOUTHEAST LOWER MICHIGAN

CITY           SKY/WX    TMP DP  RH WIND       PRES   REMARKS
ADRIAN         CLOUDY    58  58 100 CALM      30.01S
ALMA           CLOUDY    60  55  85 N10G18    30.11R
ANN ARBOR      LGT RAIN  59  58  96 N12       30.00R
BAD AXE        CLEAR     59  54  82 E9G16     30.15R
CARO           PTCLDY    60  55  86 NE8       30.10S
DETROIT CITY   LGT RAIN  60  60 100 E10       30.02R
DETROIT        RAIN      60  59  96 NE8       30.00S FOG
FLINT          CLOUDY    61  56  83 NE13      30.05S
HILLSDALE      RAIN      55  54  94 NE3       30.01R
HOWELL         LGT RAIN  57  55  95 N5        30.03S

CITY           SKY/WX    TMP DP  RH WIND       PRES   REMARKS
JACKSON        HVY RAIN  57  57 100 N7        30.02S
LAMBERTVILLE   CLOUDY    59  57  94 CALM      30.00R
LANSING        CLOUDY    57  53  86 N12       30.06S
LAPEER         MOCLDY    62  55  77 NE9G18    30.07R
MASON          RAIN      56  55  94 N3        30.04S
MONROE         RAIN      59  59  99 NW5       29.99R
PONTIAC        LGT RAIN  60  56  86 NE12      30.03R
PORT HURON     MOCLDY    61  55  82 NE16      30.07R
TRI CITIES     PTCLDY    61  54  77 NE14      30.12R
MIDLAND        FAIR      60  53  77 NE9       30.12S
TROY           HVY RAIN  61  57  87 NE12      30.04R
SAGINAW HB     CLOUDY    59  52  77 NE10      30.10R
$$
MIZ043>046-050>051-056>058-064>065-071>073-077>080-290900-
SOUTHWEST LOWER MICHIGAN

CITY           SKY/WX    TMP DP  RH WIND       PRES   REMARKS
BATTLE CREEK   LGT RAIN  56  56 100 N8        30.05R
BENTON HARBOR  CLOUDY    59  53  80 NE9       30.04S
BIG RAPIDS     CLEAR     59  54  83 NE8       30.14S
COLDWATER      LGT RAIN  57  57  99 NE8       30.01S
FREMONT        FAIR      55  51  88 N7        30.12S
HOLLAND        CLOUDY    60  53  77 N7        30.08S
GRAND RAPIDS   CLOUDY    59  53  80 NE10      30.08S
IONIA          MOCLDY    58  52  81 N13G18    30.07R
KALAMAZOO      LGT RAIN  57  54  89 N9        30.05R FOG
LUDINGTON      CLEAR     55  52  88 NE8       30.17S
MARSHALL       HVY RAIN  56  56  98 CALM      30.03S
MOUNT PLEASANT CLEAR     59  53  80 NE12      30.12S
MUSKEGON       PTCLDY    58  52  80 N12       30.12S
SOUTH HAVEN    CLOUDY    59  56  87 N9        30.05S
$$
MIZ016>042-290900-
NORTHERN LOWER MICHIGAN

CITY           SKY/WX    TMP DP  RH WIND       PRES   REMARKS
ALPENA         CLEAR     60  55  83 NE9       30.26R
BEAVER ISLAND  CLEAR     57  53  86 E6        30.29R
BELLAIRE       CLEAR     50  49  95 CALM      30.25S
CADILLAC       CLEAR     52  50  91 N7        30.20S
CHARLEVOIX     CLEAR     59  55  85 E7        30.30R
FRANKFORT      CLEAR     59  53  78 NE5       30.23R
GAYLORD        CLEAR     55  51  86 NE7       30.26R
GRAYLING       CLEAR     55  53  93 NE12      30.24R
HARBOR SPRINGS CLEAR     57  54  88 NE7       30.28R FOG
HOUGHTON LAKE  CLEAR     54  52  93 NE12      30.21S
MANISTEE       CLEAR     57  51  80 NE10      30.20R
OSCODA         CLEAR     61  56  82 E15G22    30.20R
PELLSTON       CLEAR     50  49  96 CALM      30.29R
ROGERS CITY    CLEAR     61  57  87 E8        30.29R
TRAVERSE CITY  CLEAR     56  52  86 CALM      30.23R
$$
MIZ007>008-015-290900-
EASTERN UPPER MICHIGAN

CITY           SKY/WX    TMP DP  RH WIND       PRES   REMARKS
KINROSS        CLEAR     53  49  86 NE8       30.32R
MACKINAC ISLAN CLEAR     57  52  81 NE9       30.30R
NEWBERRY       CLEAR     52  51  97 N6        30.32R
S. S. MARIE    CLEAR     55  49  80 E3        30.32R
MUNISING         N/A     59  57  93 NW8       30.34R
$$
MIZ004>006-011>014-085-290900-
CENTRAL UPPER MICHIGAN

CITY           SKY/WX    TMP DP  RH WIND       PRES   REMARKS
MANISTIQUE     CLEAR     52  50  92 N9        30.31R
ESCANABA       CLEAR     55  52  89 N6        30.32R
MENOMINEE      CLEAR     53  50  89 N9        30.31R
SAWYER-GWINN   PTCLDY    53  52  95 NE12      30.36S
$$
MIZ001>003-009>011-084-290900-
WESTERN UPPER MICHIGAN

CITY           SKY/WX    TMP DP  RH WIND       PRES   REMARKS
IRON MOUNTAIN  CLEAR     50  47  89 W6        30.34R
HOUGHTON       CLEAR     49  46  90 N7        30.39R
COPPER HARBOR    N/A     58  54  86 E8        30.39R
IRONWOOD       CLOUDY    48  46  93 CALM      30.42R
$$

ABBREVIATIONS USED IN REMARKS
   TC - TEMPERATURE IN CELSIUS
  WCI - WIND CHILL INDEX
   HX - HEAT INDEX
  VSB - VISIBILITY





USA.gov is the U.S. government's official web portal to all federal, state and local government web resources and services.